{"data":{"norad_id":28190,"intl_designator":"2004-009A","name":"GPS BIIR-11 (PRN 19)","alt_names":[],"object_type":"PAYLOAD","status":"ACTIVE","operator":null,"country":"US","launch_date":"2004-03-20","launch_site_code":"AFETR","launch_vehicle":null,"mission":null,"orbit_class":"UNKNOWN","rcs_meters":7.9432,"size_class":null,"mass_kg":null,"dimensions":null,"purposes":["earth_obs","nav"],"wikipedia_slug":null,"has_3d_model":false,"image_url":null,"decayed_at":null,"tle_current":{"epoch":"2026-05-24T22:52:10.267104Z","epoch_age_seconds":86089,"freshness":"FRESH","line1":"1 28190U 04009A   26144.95289661 -.00000078  00000+0  00000+0 0  9990","line2":"2 28190  54.8497 276.6255 0115098 172.0582 185.2227  2.00555464162479","mean_motion":2.00555464,"eccentricity":0.0115098,"inclination_deg":54.8497,"raan_deg":276.6255,"arg_perigee_deg":172.0582,"mean_anomaly_deg":185.2227,"bstar":0,"rev_number":16247,"period_min":718.00586794284,"perigee_km":19877.216924409,"apogee_km":20488.642050524,"semimajor_km":26561.066487467,"source":"CELESTRAK","updated_at":"2026-05-25T13:38:23.727490Z"}}}